Main page
METAR-TAF:

METAR-TAF

Airports :

Jim Kelly Field

Lexington, Nebraska, United States

latitude: 40-47-28N, longitude: 099-46-38W, elevation: 2414 ft

Current weather observation

The report was made 17 minutes ago, at 04:35 UTC
Wind 3 mph from the South/Southeast
Temperature 64°F
Humidity 64%
Pressure 29.91 in. Hg
Visibility: 10 miles
Clear sky

METAR: KLXN 240435Z AUTO 15003KT 10SM CLR 18/11 A2991 RMK AO2 T01780107

Time: 23:52 (04:52 UTC)


TAF: missing

Weather observations and forecasts of more than 4000 airports (METAR and TAF reports).

The available stations are represented by yellow and red dots on the map.

Hover mouse over dot to see the name of the station.

Then click to see weather observations and forecasts.

To change the map : click on the green buttons with a black cross to zoom in, on the green button with a dash to zoom out, or on the green arrows for adjacent maps.


METAR-TAF: